[[{"header":{"parameterUnit":"m.s-1","parameterCategory":1,"la1":30.2991,"la2":30.254,"lo1":-89.0895,"lo2":-89.0444,"dy":0.0017,"dx":0.0017,"nx":28,"ny":28,"refTime":"2024-04-30T21:00:00:Z","depth":0,"parameterNumber":2,"parameterNumberName":"U-component_of_WINDS"},"data":[0,0,0,0,0,0,0,0,0,0,0,0,0,0,0,0,0,0,0,0,0,0,0,0,0,0,0,0,0,0,0,0,0,0,0,0,0,0,0,0,0,0,0,0,0,0,0,0,0,0,0,0,0,0,0,0,0,0,-0.5689,-0.5689,0,-0.5633,-0.5632,-0.5632,-0.561,-0.561,-0.561,-0.561,-0.555,-0.5548,-0.5547,0,0,0,0,0,0,0,0,0,0,0,0,0,-0.5776,-0.5774,-0.5689,-0.5689,-0.5688,-0.5633,-0.5632,-0.5632,-0.561,-0.561,-0.561,-0.561,-0.5551,-0.5549,-0.5547,0,0,0,0,0,0,0,0,0,0,0,0,0,-0.5731,-0.5774,-0.5689,-0.567,-0.5668,-0.5633,-0.5632,-0.5631,-0.561,-0.561,-0.561,-0.561,-0.5551,-0.5549,-0.5546,-0.5525,0,0,-0.5538,-0.5537,0,0,0,0,0,0,0,0,-0.5733,-0.5728,-0.5674,-0.5672,-0.5669,-0.5629,-0.5641,-0.5596,-0.561,-0.5632,-0.561,-0.5611,-0.5576,-0.5571,-0.556,-0.5522,-0.552,-0.5538,-0.5536,-0.5535,-0.5534,0,0,0,0,0,0,0,-0.5737,-0.573,-0.5667,-0.5673,-0.567,-0.5664,-0.5658,-0.5632,-0.5603,-0.563,-0.5628,-0.5622,-0.5575,-0.5563,-0.5559,-0.5519,-0.5538,-0.5536,-0.5534,-0.5533,-0.5461,-0.5461,0,0,0,0,0,0,-0.5743,-0.5733,-0.5669,-0.5665,-0.5703,-0.5662,-0.5656,-0.5641,-0.5603,-0.5598,-0.5622,-0.5621,-0.5567,-0.5562,-0.5556,-0.5529,-0.5535,-0.5533,-0.5531,-0.5461,-0.5461,-0.5461,0,0,0,0,0,0,-0.5745,-0.5738,-0.5671,-0.5698,-0.569,-0.5661,-0.5645,-0.564,-0.5628,-0.5597,-0.5592,-0.5615,-0.5567,-0.556,-0.5533,-0.5527,-0.5532,-0.5529,-0.5462,-0.5461,-0.5461,-0.5474,0,0,0,0,0,0,-0.5748,-0.5738,-0.5731,-0.5699,-0.5688,-0.5649,-0.5645,-0.5639,-0.5624,-0.5623,-0.559,-0.5584,-0.5567,-0.5537,-0.5531,-0.5523,-0.5527,-0.5462,-0.5462,-0.5461,-0.5474,-0.5474,-0.5475,0,0,0,0,0,-0.5751,-0.5736,-0.573,-0.5723,-0.5678,-0.5649,-0.5643,-0.5624,-0.5624,-0.5615,-0.5595,-0.5585,-0.5529,-0.5535,-0.5527,-0.5519,-0.5463,-0.5462,-0.5461,-0.5474,-0.5474,-0.5475,0,0,0,0,0,0,-0.5767,-0.5731,-0.5725,-0.5699,-0.5678,-0.5646,-0.5634,-0.5625,-0.5602,-0.5601,-0.5578,-0.5571,-0.5546,-0.553,-0.5537,-0.5496,-0.5495,-0.5493,-0.5508,-0.5507,-0.5508,-0.5511,-0.5525,0,0,0,0,0,-0.5768,-0.5748,-0.5718,-0.5698,-0.5688,-0.5663,-0.565,-0.5637,-0.5613,-0.5604,-0.5582,-0.5559,-0.5536,-0.5521,-0.5498,-0.5472,-0.5465,-0.5463,-0.5463,-0.5463,-0.5461,-0.5446,-0.5445,-0.5458,-0.5458,-0.5458,0,0,-0.5769,-0.5747,-0.5736,-0.5701,-0.5683,-0.5662,-0.5655,-0.5634,-0.5618,-0.56,-0.5574,-0.5557,-0.5529,-0.5503,-0.5491,-0.5489,-0.5456,-0.5462,-0.5463,-0.546,-0.5445,-0.5444,-0.5443,-0.5458,-0.5458,-0.5458,0,0,-0.576,-0.5742,-0.5723,-0.5706,-0.5678,-0.5662,-0.5658,-0.5628,-0.5616,-0.5589,-0.5575,-0.5556,-0.5517,-0.5498,-0.5483,-0.5469,-0.5458,-0.5462,-0.5462,-0.5448,-0.5446,-0.5445,-0.544,-0.5438,-0.546,-0.546,-0.546,0,-0.5764,-0.5734,-0.5715,-0.5695,-0.568,-0.5664,-0.5644,-0.5628,-0.5594,-0.5584,-0.5583,-0.5534,-0.5514,-0.5483,-0.548,-0.5469,-0.5463,-0.5465,-0.5448,-0.5447,-0.5446,-0.544,-0.5438,-0.5461,-0.5461,-0.5461,-0.5461,0,-0.574,-0.5719,-0.5708,-0.5677,-0.566,-0.5641,-0.5619,-0.5604,-0.5594,-0.5577,-0.555,-0.5527,-0.5499,-0.549,-0.5479,-0.5458,-0.5458,-0.5453,-0.5451,-0.5445,-0.544,-0.5437,-0.5462,-0.5461,-0.5461,-0.5461,0,0,-0.5738,-0.5699,-0.5694,-0.568,-0.565,-0.5633,-0.5612,-0.5586,-0.5574,-0.5552,-0.5534,-0.5502,-0.5497,-0.548,-0.5467,-0.5455,-0.5444,-0.5451,-0.545,-0.545,-0.5419,-0.5423,-0.542,-0.5438,-0.5437,-0.5437,-0.5421,0,-0.5725,-0.5689,-0.5672,-0.5643,-0.5623,-0.5608,-0.559,-0.5569,-0.5554,-0.5534,-0.5517,-0.5494,-0.5491,-0.548,-0.5468,-0.5448,-0.5438,-0.5449,-0.542,-0.5419,-0.5427,-0.5417,-0.5421,-0.5407,-0.5419,-0.5419,-0.5418,0,-0.5704,-0.5683,-0.5652,-0.5624,-0.5615,-0.56,-0.5575,-0.5556,-0.5532,-0.5522,-0.5504,-0.5491,-0.5469,-0.5469,-0.5438,-0.5446,-0.5433,-0.5422,-0.5421,-0.5417,-0.5418,-0.5412,-0.5402,-0.54,-0.5415,-0.5415,-0.5415,0,-0.5706,-0.5669,-0.5646,-0.5635,-0.5602,-0.5591,-0.5577,-0.5553,-0.5538,-0.5516,-0.5506,-0.5482,-0.5468,-0.5449,-0.543,-0.5432,-0.54,-0.5399,-0.539,-0.539,-0.5383,-0.5383,-0.537,-0.5376,-0.5376,-0.5376,-0.5376,0,-0.5692,-0.5673,-0.5646,-0.5632,-0.5611,-0.5592,-0.5571,-0.5556,-0.5535,-0.5517,-0.5503,-0.5486,-0.5462,-0.5442,-0.5427,-0.5403,-0.5397,-0.5388,-0.5384,-0.5388,-0.5389,-0.5379,-0.5379,-0.5376,-0.5376,-0.5376,-0.5376,0,-0.5689,-0.567,-0.5644,-0.5616,-0.5608,-0.5594,-0.5569,-0.5554,-0.5539,-0.5516,-0.551,-0.5485,-0.5461,-0.5441,-0.5409,-0.5398,-0.5374,-0.5369,-0.5382,-0.538,-0.5372,-0.5372,-0.535,-0.5346,-0.5356,-0.5356,-0.5356,0,-0.5681,-0.5666,-0.5637,-0.5624,-0.561,-0.559,-0.5576,-0.5557,-0.5542,-0.5514,-0.5502,-0.5478,-0.5457,-0.5419,-0.5398,-0.5373,-0.5368,-0.5362,-0.5364,-0.5369,-0.5367,-0.5368,-0.5366,-0.5361,-0.5361,-0.5361,-0.5361,0,-0.5668,-0.566,-0.564,-0.5617,-0.56,-0.5581,-0.5561,-0.5551,-0.5528,-0.5512,-0.5488,-0.5472,-0.544,-0.5416,-0.5389,-0.5374,-0.5363,-0.5361,-0.5358,-0.5362,-0.5369,-0.5365,-0.5381,-0.5361,-0.5361,-0.5361,-0.5361,-0.5361,-0.5662,-0.5649,-0.5626,-0.5604,-0.5587,-0.5569,-0.5554,-0.5538,-0.5517,-0.549,-0.548,-0.5456,-0.5432,-0.5396,-0.5381,-0.5361,-0.5359,-0.5354,-0.5353,-0.5351,-0.5352,-0.5374,-0.5356,-0.5356,-0.5356,-0.5356,-0.5356,0,-0.5648,-0.5633,-0.5613,-0.5587,-0.5569,-0.5563,-0.5541,-0.5526,-0.5505,-0.5485,-0.5465,-0.5437,-0.5414,-0.5391,-0.5366,-0.5355,-0.5349,-0.5349,-0.5349,-0.5345,-0.5355,-0.536,-0.5353,-0.5353,-0.5353,-0.5353,-0.5353,-0.5353,-0.5639,-0.5616,-0.5605,-0.5573,-0.5558,-0.5535,-0.5523,-0.5506,-0.549,-0.546,-0.544,-0.5426,-0.5405,-0.5379,-0.5357,-0.535,-0.5342,-0.5342,-0.5335,-0.5344,-0.5344,-0.5345,-0.535,-0.5341,-0.5341,-0.5326,-0.5326,-0.5326]},{"header":{"parameterUnit":"m.s-1","parameterCategory":1,"la1":30.2991,"la2":30.254,"lo1":-89.0895,"lo2":-89.0444,"dy":0.0017,"dx":0.0017,"nx":28,"ny":28,"refTime":"2024-04-30T21:00:00:Z","depth":0,"parameterNumber":3,"parameterNumberName":"V-component_of_WINDS"},"data":[0,0,0,0,0,0,0,0,0,0,0,0,0,0,0,0,0,0,0,0,0,0,0,0,0,0,0,0,0,0,0,0,0,0,0,0,0,0,0,0,0,0,0,0,0,0,0,0,0,0,0,0,0,0,0,0,0,0,1.2026,1.2026,0,1.2062,1.2063,1.2063,1.2027,1.2026,1.2025,1.2023,1.2063,1.2065,1.2067,0,0,0,0,0,0,0,0,0,0,0,0,0,1.1927,1.1929,1.2026,1.2026,1.2027,1.2062,1.2063,1.2063,1.2028,1.2026,1.2024,1.2023,1.2062,1.2065,1.2067,0,0,0,0,0,0,0,0,0,0,0,0,0,1.1967,1.193,1.2026,1.2013,1.2012,1.2062,1.2063,1.2063,1.2028,1.2026,1.2024,1.2022,1.2061,1.2064,1.2068,1.2132,0,0,1.2079,1.208,0,0,0,0,0,0,0,0,1.1965,1.1971,1.2015,1.2014,1.2013,1.2038,1.2042,1.2086,1.2029,1.2022,1.2023,1.2021,1.2056,1.206,1.2072,1.2134,1.2136,1.2079,1.2081,1.2083,1.2084,0,0,0,0,0,0,0,1.1962,1.1969,1.204,1.2015,1.2015,1.2006,1.201,1.205,1.2051,1.2023,1.202,1.2025,1.2055,1.2068,1.2072,1.2136,1.2079,1.2082,1.2084,1.2086,1.2254,1.2256,0,0,0,0,0,0,1.1961,1.1967,1.2039,1.2041,1.1983,1.201,1.2014,1.2032,1.205,1.2051,1.2026,1.2023,1.2063,1.2068,1.2073,1.2151,1.2083,1.2086,1.2088,1.2251,1.2254,1.2257,0,0,0,0,0,0,1.1959,1.1968,1.2038,1.2004,1.2012,1.2014,1.2035,1.2034,1.2047,1.2053,1.2053,1.2039,1.2062,1.2068,1.2118,1.2151,1.2087,1.2091,1.2249,1.2252,1.2255,1.2305,0,0,0,0,0,0,1.1956,1.1967,1.1991,1.2004,1.2014,1.2081,1.2037,1.2036,1.2053,1.2048,1.2065,1.2066,1.2061,1.2113,1.2121,1.2155,1.2093,1.2246,1.225,1.2254,1.23,1.231,1.2318,0,0,0,0,0,1.1953,1.2004,1.1993,1.2001,1.2044,1.2083,1.2088,1.2081,1.2056,1.208,1.2084,1.2065,1.2146,1.2118,1.2127,1.2163,1.2243,1.2249,1.2254,1.2297,1.2308,1.2318,0,0,0,0,0,0,1.1996,1.2006,1.1993,1.205,1.2066,1.2077,1.2108,1.2093,1.2117,1.2112,1.2101,1.2106,1.2158,1.2165,1.2134,1.2226,1.2191,1.2198,1.222,1.2231,1.2239,1.2237,1.2096,0,0,0,0,0,1.2011,1.2042,1.2049,1.2099,1.2107,1.2106,1.2123,1.2115,1.2131,1.2138,1.2146,1.2163,1.2192,1.2212,1.2239,1.2301,1.2304,1.233,1.2338,1.2346,1.2353,1.2387,1.2398,1.2274,1.2274,1.2274,0,0,1.2045,1.2054,1.2074,1.2107,1.2119,1.2151,1.2112,1.2148,1.2172,1.2144,1.2191,1.2197,1.2215,1.2272,1.2297,1.2279,1.2387,1.2352,1.2358,1.2361,1.2393,1.2405,1.2416,1.2278,1.2277,1.2276,0,0,1.2123,1.2132,1.2175,1.2187,1.2204,1.2203,1.2213,1.2227,1.223,1.2276,1.2256,1.2285,1.2335,1.2349,1.2363,1.2445,1.243,1.2455,1.2501,1.2534,1.2544,1.2552,1.2583,1.2594,1.2461,1.2461,1.2461,0,1.2163,1.221,1.2199,1.2236,1.2252,1.2227,1.227,1.2283,1.2309,1.232,1.23,1.2362,1.2373,1.2432,1.2452,1.2464,1.2476,1.2453,1.2543,1.2552,1.256,1.2589,1.26,1.2464,1.2464,1.2464,1.2463,0,1.2258,1.2291,1.2324,1.2349,1.2368,1.2408,1.2404,1.2424,1.2415,1.2416,1.2464,1.2476,1.2505,1.2518,1.251,1.2577,1.2566,1.2544,1.2509,1.2575,1.2602,1.2613,1.2469,1.2468,1.2467,1.2466,0,0,1.2366,1.2383,1.2395,1.2407,1.2424,1.2449,1.2488,1.2516,1.2535,1.2553,1.2586,1.2629,1.2609,1.2625,1.2617,1.2647,1.2712,1.2622,1.2622,1.2639,1.2788,1.2805,1.2818,1.2701,1.2703,1.2705,1.2787,0,1.2445,1.2512,1.2503,1.2568,1.2599,1.2576,1.261,1.2624,1.2626,1.2653,1.2655,1.2686,1.2657,1.2667,1.2694,1.2699,1.2742,1.2692,1.2733,1.2735,1.2731,1.2832,1.285,1.2927,1.2797,1.2799,1.2801,0,1.2547,1.2568,1.2636,1.2648,1.2661,1.2692,1.2717,1.2742,1.2758,1.2758,1.2775,1.2762,1.2802,1.2765,1.282,1.2786,1.2802,1.2807,1.281,1.2814,1.2773,1.2841,1.2952,1.2964,1.2817,1.2816,1.2814,0,1.262,1.2665,1.2712,1.2722,1.2737,1.2759,1.2767,1.2781,1.2798,1.282,1.2831,1.2858,1.2873,1.2894,1.2889,1.2862,1.2946,1.2908,1.2948,1.2948,1.2968,1.2967,1.3084,1.2976,1.2976,1.2975,1.2975,0,1.271,1.2753,1.2745,1.2774,1.2821,1.281,1.2858,1.2862,1.2875,1.2905,1.2886,1.2914,1.2905,1.2934,1.293,1.2977,1.2984,1.2985,1.2984,1.2988,1.2988,1.2999,1.2995,1.2978,1.2978,1.2977,1.2977,0,1.28,1.2796,1.2846,1.2856,1.2859,1.2894,1.2903,1.293,1.293,1.2968,1.2977,1.2977,1.3009,1.3006,1.3043,1.304,1.3099,1.3091,1.3094,1.3092,1.3133,1.313,1.3263,1.328,1.3159,1.316,1.3161,0,1.2859,1.2891,1.2904,1.2922,1.2931,1.2961,1.2978,1.2969,1.2988,1.3008,1.3034,1.3064,1.3088,1.3141,1.3145,1.3173,1.3166,1.3211,1.3171,1.3174,1.3169,1.3168,1.3171,1.322,1.3221,1.3222,1.3223,0,1.2964,1.296,1.2985,1.3011,1.3032,1.3051,1.3068,1.3085,1.3077,1.3099,1.3132,1.315,1.3187,1.3218,1.3244,1.3253,1.3238,1.3235,1.3246,1.3251,1.3252,1.3254,1.3117,1.3233,1.3232,1.3231,1.3231,1.323,1.3041,1.3069,1.3082,1.3111,1.3123,1.314,1.3166,1.3169,1.3196,1.3225,1.3217,1.3254,1.327,1.3303,1.3314,1.3344,1.3328,1.3343,1.3347,1.3352,1.3357,1.3246,1.3348,1.3348,1.3348,1.3347,1.3347,0,1.3146,1.3153,1.318,1.3205,1.3228,1.3209,1.3228,1.3249,1.3281,1.3296,1.332,1.3358,1.3387,1.3393,1.3422,1.3444,1.3438,1.3452,1.3452,1.3454,1.3369,1.3358,1.3457,1.3457,1.3457,1.3457,1.3457,1.3457,1.3204,1.325,1.3248,1.33,1.3307,1.3343,1.3355,1.337,1.3382,1.3425,1.3449,1.3453,1.3464,1.3494,1.352,1.3521,1.3534,1.3551,1.355,1.3471,1.346,1.3449,1.3439,1.3553,1.3554,1.3632,1.3633,1.3633]}]]